Regional Weather Roundup
Issued by NWS

Home | Current Version | Previous Version | Graphics & Text | Print | Product List | Glossary On
Versions: 1 2 3 4 5 6 7 8 9 10 11 12 13 14 15 16 17 18 19 20 21 22 23 24 25 26 27 28 29 30 31 32 33 34 35 36 37 38 39 40 41 42 43 44 45 46 47 48 49 50
412
ASUS43 KOAX 201410
RWRNE

WEATHER ROUNDUP FOR NEBRASKA
NATIONAL WEATHER SERVICE OMAHA NE
800 AM CST FRI JAN 20 2017

NOTES: SATELLITE DATA IS BEING USED TO AUGMENT CLOUD COVER ABOVE
       12000 FEET.
       "FAIR" INDICATES FEW OR NO CLOUDS BELOW 12,000 FEET WITH NO
       SIGNIFICANT WEATHER AND/OR OBSTRUCTIONS TO VISIBILITY.

  * THESE STATIONS DO NOT REPORT WEATHER SUCH AS RAIN...SNOW OR FOG.

NEZ001>004-019>022-054>056-201500-
NEBRASKA PANHANDLE

CITY           SKY/WX    TMP DP  RH WIND       PRES   REMARKS
SCOTTSBLUFF    CLOUDY    27  22  81 NW7       29.43F WCI  19
ALLIANCE       CLOUDY    23  20  88 W8        29.41F WCI  14
CHADRON        CLOUDY    24  19  81 SW8       29.43R WCI  15
KIMBALL        CLOUDY    35  28  78 NW10      29.45R WCI  27
SIDNEY         CLOUDY    29  24  82 NW9       29.44S WCI  20
$$

NEZ057>060-069>072-079>082-201500-
SOUTHWEST NEBRASKA

CITY           SKY/WX    TMP DP  RH WIND       PRES   REMARKS
NORTH PLATTE   CLOUDY    34  32  92 W3        29.47S
IMPERIAL       FOG       28  27  96 CALM      29.46R VSB 1/2
LEXINGTON      CLOUDY    36  35  96 S6        29.48S WCI  31
MCCOOK         FOG       33  33 100 N3        29.46F VSB 1/2
OGALLALA       FOG       28  27  96 CALM      29.46R VSB 1/2
$$

NEZ005>010-023>029-035>040-094-201500-
NORTH CENTRAL NEBRASKA

CITY           SKY/WX    TMP DP  RH WIND       PRES   REMARKS
VALENTINE      CLOUDY    19  16  88 SW8       29.38F WCI   9
AINSWORTH      CLEAR     26  24  92 SW6       29.40R WCI  20
BROKEN BOW     CLOUDY    34  32  92 SW5       29.45F WCI  30
O`NEILL        CLEAR     33  32  97 S7        29.44S WCI  27
ORD            CLOUDY    30  28  92 E3        29.47S
THEDFORD       CLOUDY    30  30  99 SW9       29.43S FOG     WCI  22
$$

NEZ041-046>049-061>064-073>077-083>087-201500-
SOUTH CENTRAL NEBRASKA

CITY           SKY/WX    TMP DP  RH WIND       PRES   REMARKS
GRAND ISLAND   CLOUDY    37  37 100 S7        29.51F WCI  32
AURORA         FOG       36  36 100 S5        29.52F VSB 1/2 WCI  32
HASTINGS       FOG       38  37  97 S5        29.52F VSB 1/4 WCI  34
HEBRON         FOG       37  37  99 CALM      29.54S VSB 1/2
HOLDREGE       FOG       36  35  97 CALM      29.48S VSB 1/4
KEARNEY *      CLOUDY    36  34  93 S3        29.49F VSB 1/4
YORK           FOG       37  37 100 S6        29.53F VSB 1/4 WCI  33
$$

NEZ011>018-030>034-042>045-201500-
NORTHEAST NEBRASKA

CITY           SKY/WX    TMP DP  RH WIND       PRES   REMARKS
NORFOLK        CLOUDY    37  36  96 S8        29.51S WCI  31
ALBION         CLOUDY   N/A N/A N/A S8        29.51S FOG
BLAIR          CLOUDY    40  39  97 S6        29.56R FOG
FREMONT        CLOUDY    39  39 100 S5        29.57R FOG
TEKAMAH        CLOUDY    37  36  96 S6        29.57R FOG     WCI  32
WAYNE          CLOUDY    37  37  98 S10       29.53S FOG     WCI  30
$$

NEZ050>053-065>068-078-088>093-201500-
SOUTHEAST NEBRASKA

CITY           SKY/WX    TMP DP  RH WIND       PRES   REMARKS
LINCOLN        CLOUDY    39  38  96 CALM      29.57S FOG
OMAHA EPPLEY   CLOUDY    39  36  89 S9        29.58R WCI  33
BEATRICE       FOG       40  40 100 SE3       29.54F VSB 1/4
FALLS CITY     FOG       40  39  97 NE3       29.56S VSB 1/4
NEBRASKA CITY  FOG       37  37 100 CALM      29.57S VSB 1/2
PLATTSMOUTH    FOG       39  37  93 E5        29.57S VSB 3/4
$$

NEZ044-045-051>053-067-201500-
OMAHA AREA

CITY           SKY/WX    TMP DP  RH WIND       PRES   REMARKS
OMAHA EPPLEY   CLOUDY    39  36  89 S9        29.58R WCI  33
BLAIR          CLOUDY    40  39  97 S6        29.56R FOG
FREMONT        CLOUDY    39  39 100 S5        29.57R FOG
MILLARD        CLOUDY    41  41  98 SE7       29.58R FOG
OFFUTT AFB     FOG       38  38 100 SE5       29.58R VSB 1   WCI  34
PLATTSMOUTH    FOG       39  37  93 E5        29.57S VSB 3/4
WAHOO          FOG       38  37  97 S3        29.56R VSB 1/2
$$




USA.gov is the U.S. government's official web portal to all federal, state and local government web resources and services.